Location: *
(2.5500°S, 65.9667°W)
Time: 06:01:51
(UTC+00:00)

Tiros 1 despin weight - Pass Details

Date: 20 April 2024
Orbit: 578 x 621 km, 48.2° (Epoch: 25 May)

Event Time Altitude Azimuth Distance (km) Brightness Sun altitude
Rises 14:27:19 0° 240° (WSW) 2,785 ? 57.9°
Reaches altitude 10° 14:29:52 10° 253° (WSW) 1,886 ? 58.5°
Maximum altitude 14:33:27 25° 309° (NW) 1,177 ? 59.3°
Drops below altitude 10° 14:37:02 10° 5° (N) 1,893 ? 60.1°
Sets 14:39:37 0° 18° (NNE) 2,797 ? 60.6°
